Location: Arapaho Elementary School
(32.9607°N, 96.7625°W)
Time: 12:49:21
(UTC+00:00)

Cosmos 2228 Rocket - Pass Details

Date: 08 July 2022
Orbit: 618 x 651 km, 82.5° (Epoch: 13 August)

Event Time Altitude Azimuth Distance (km) Brightness Sun altitude
Rises 10:43:11 0° 328° (NNW) 2,927 6.6 -8.5°
Reaches altitude 10° 10:46:31 10° 302° (WNW) 2,022 5.5 -7.9°
Maximum altitude 10:48:36 13° 274° (W) 1,820 5.0 -7.5°
Drops below altitude 10° 10:50:41 10° 246° (WSW) 2,025 5.0 -7.2°
Enters shadow 10:51:14 - 240° (WSW) 2,137 5.1 -7.1°
